Location: Les Jeannots
(43.2262°N, 5.5774°E)
Time: 19:16:02
(UTC+00:00)

Cosmos 1709 Rocket - Pass Details

Date: 05 July 2020
Orbit: 948 x 1002 km, 82.9° (Epoch: 12 August)

Event Time Altitude Azimuth Distance (km) Brightness Sun altitude
Exits shadow 20:24:11 - 166° (SSE) 3,010 6.1 -9.9°
Reaches altitude 10° 20:24:58 10° 165° (SSE) 2,728 5.8 -10.0°
Maximum altitude 20:30:59 51° 91° (E) 1,228 4.3 -10.8°
Drops below altitude 10° 20:37:06 10° 17° (NNE) 2,775 6.8 -11.5°
Sets 20:39:43 0° 13° (NNE) 3,733 7.6 -11.9°
